Regional Weather Roundup
Issued by NWS Green Bay, WI

Home | Current Version | Previous Version | Graphics & Text | Print | Product List | Glossary Off
Versions: 1 2 3 4 5 6 7 8 9 10 11 12 13 14 15 16 17 18 19 20 21 22 23 24 25 26 27 28 29 30 31 32 33 34 35 36 37 38 39 40 41 42 43 44 45 46 47 48 49 50

000
ASUS43 KGRB 030910
RWRGRB

NORTH-CENTRAL AND NORTHEAST WISCONSIN REGIONAL WEATHER ROUNDUP
NATIONAL WEATHER SERVICE GREEN BAY WI
300 AM CST TUE MAR 03 2015

WIZ005-009-010>012-018-019-031000-
NORTH CENTRAL WISCONSIN

CITY           SKY/WX    TMP DP  RH WIND       PRES   REMARKS
IRONWOOD       CLOUDY    21   7  53 SW12G21   29.88F WCI   9
MANITOWISH WTR FLURRIES  17  11  77 S6        29.92F WCI   9
ARBOR VITAE    FLURRIES  20  11  68 S10       29.93F WCI   9
EAGLE RIVER    FLURRIES  20   7  56 S3        29.93F
LAND O LAKES   FLURRIES  19  10  70 S5        29.93F
RHINELANDER    CLOUDY    20   8  60 S8        29.94
PHILLIPS       LGT SNOW  19  14  82 S7        29.93F WCI   9
ANTIGO         LGT SNOW  18  16  90 S9        29.97F WCI   7
TOMAHAWK       LGT SNOW  19  14  81 CALM      29.96F
MERRILL        FLURRIES  20  17  88 S5        29.97F
$$

WIZ013-073-031000-
NORTHEAST WISCONSIN

CITY           SKY/WX    TMP DP  RH WIND       PRES   REMARKS
IRON MOUNTAIN  CLOUDY    19  10  68 S6        30.00F
MARINETTE      CLOUDY    23  16  74 SW14      30.07F
OCONTO         CLOUDY    22  21  96 S5        30.08F
$$

WIZ017-030-035>037-045-031000-
CENTRAL WISCONSIN

CITY           SKY/WX    TMP DP  RH WIND       PRES   REMARKS
MEDFORD        CLOUDY    19  16  89 SE7       29.94F WCI   9
WAUSAU         CLOUDY    20  16  84 SE6       29.98F
MOSINEE        CLOUDY    21  19  93 SE6       29.99F
MARSHFIELD     CLOUDY    21  14  74 SE8       29.96F
WISC RAPIDS    CLOUDY    22  12  65 SE6       30.01F
STEVENS POINT  CLOUDY    19  14  79 SE5       30.00F
WAUPACA        CLOUDY    24  18  75 SE6       30.05F
SHAWANO        LGT SNOW  24  20  87 CALM      30.06F VSB 1
CLINTONVILLE   CLOUDY    23  19  86 SE5       30.05F
$$

WIZ038-039-048-051-031000-
FOX VALLEY

CITY           SKY/WX    TMP DP  RH WIND       PRES   REMARKS
NWS GREEN BAY  CLOUDY    22  21  96 S6        30.08F
APPLETON       CLOUDY    23  19  86 SE7       30.06F
OSHKOSH        CLOUDY    24  15  68 SE6       30.06F
FOND DU LAC    CLOUDY    24  15  68 SE8       30.06F
$$

WIZ022-050-052-031000-
EAST CENTRAL WISCONSIN

CITY           SKY/WX    TMP DP  RH WIND       PRES   REMARKS
STURGEON BAY   CLOUDY    21  18  86 S9        30.11F VSB 1
MANITOWOC      CLOUDY    23  22  96 S6        30.10F
SHEBOYGAN      CLOUDY    24  17  74 S5        30.09F
$$

LMZ563-521-522-541>543-031000-
LAKESHORE

STATION/POSITION TIME  TEMP    WIND        PRES    VSBY  WAVE
                       AIR SEA DIR/SP/G                  HT/PER
                 (UTC) (F)     (DEG/KT/KT) (MB)    (MI)  (FT/S)
SHEBOYGAN LKSHOR 0900   28     170/ 14/ 16 1020.0F
KEWAUNEE LKSHORE 0900   23     200/  7/  9 1019.0F
NORTHPORT PIER   0900   25     180/  3/ 12 1019.3F
SISTER BAY LKSHO 0900   24     190/ 12/ 14   N/A
CHAMBERS ISLAND  0900   24     170/  7/ 12 1019.3F
MENOMINEE LKSHOR 0900   24     200/ 10     1019.6F
$$



USA.gov is the U.S. government's official web portal to all federal, state and local government web resources and services.